| time (UTC) | temp C | wind direction | speed KPH | gust KPH | rain 1hr cm | rain 24hr cm | rain mn cm | humidity % | barometer mb |
| 20260506051225 | 23 | 177 | 12.9 | 19.3 | 0.00 | 0.00 | 0.00 | 92 | 1008.6 |
| 20260506050724 | 23 | 160 | 6.4 | 8.0 | 0.00 | 0.00 | 0.00 | 92 | 1008.7 |
| 20260506050221 | 23 | 166 | 3.2 | 3.2 | 0.00 | 0.00 | 0.00 | 92 | 1008.6 |
| 20260506044712 | 23 | 193 | 1.6 | 3.2 | 0.00 | 0.00 | 0.00 | 91 | 1008.7 |
| 20260506044209 | 23 | 141 | 6.4 | 14.5 | 0.00 | 0.00 | 0.00 | 91 | 1008.8 |
| 20260506043707 | 23 | 149 | 6.4 | 8.0 | 0.00 | 0.00 | 0.00 | 91 | 1008.7 |
| 20260506043204 | 23 | 159 | 6.4 | 8.0 | 0.00 | 0.00 | 0.00 | 91 | 1008.9 |
| 20260506042703 | 23 | 182 | 6.4 | 8.0 | 0.00 | 0.00 | 0.00 | 91 | 1008.7 |
| 20260506042201 | 23 | 173 | 6.4 | 8.0 | 0.00 | 0.00 | 0.00 | 90 | 1008.7 |
| 20260506041659 | 23 | 162 | 3.2 | 4.8 | 0.00 | 0.00 | 0.00 | 90 | 1008.7 |
| 20260506041155 | 23 | 155 | 3.2 | 3.2 | 0.00 | 0.00 | 0.00 | 90 | 1008.7 |
| 20260506040653 | 24 | 144 | 4.8 | 8.0 | 0.00 | 0.00 | 0.00 | 90 | 1008.6 |
| 20260506040150 | 24 | 168 | 4.8 | 8.0 | 0.00 | 0.00 | 0.00 | 90 | 1008.6 |
| 20260506035647 | 24 | 150 | 9.7 | 11.3 | 0.00 | 0.00 | 0.00 | 89 | 1008.4 |
| 20260506035143 | 24 | 158 | 3.2 | 4.8 | 0.00 | 0.00 | 0.00 | 89 | 1008.3 |
| 20260506034640 | 24 | 173 | 6.4 | 8.0 | 0.00 | 0.00 | 0.00 | 89 | 1008.2 |
| 20260506034137 | 24 | 152 | 3.2 | 3.2 | 0.00 | 0.00 | 0.00 | 89 | 1008.1 |
| 20260506033635 | 24 | 138 | 3.2 | 4.8 | 0.00 | 0.00 | 0.00 | 89 | 1008.1 |
| 20260506033131 | 24 | 174 | 8.0 | 11.3 | 0.00 | 0.00 | 0.00 | 89 | 1007.9 |
| 20260506032629 | 24 | 167 | 6.4 | 8.0 | 0.00 | 0.00 | 0.00 | 89 | 1008.1 |
| 20260506032126 | 24 | 166 | 8.0 | 8.0 | 0.00 | 0.00 | 0.00 | 89 | 1008.0 |
| 20260506031623 | 24 | 160 | 3.2 | 4.8 | 0.00 | 0.00 | 0.00 | 89 | 1007.8 |
| 20260506031119 | 24 | 165 | 3.2 | 4.8 | 0.00 | 0.00 | 0.00 | 89 | 1008.0 |
| 20260506030618 | 24 | 160 | 3.2 | 3.2 | 0.00 | 0.00 | 0.00 | 88 | 1007.8 |
| 20260506030115 | 24 | 154 | 8.0 | 11.3 | 0.00 | 0.00 | 0.00 | 89 | 1007.5 |
| 20260506025612 | 25 | 134 | 9.7 | 14.5 | 0.00 | 0.00 | 0.00 | 88 | 1007.4 |
| 20260506025107 | 25 | 155 | 8.0 | 8.0 | 0.00 | 0.00 | 0.00 | 88 | 1007.4 |
| 20260506024605 | 25 | 161 | 0.0 | 0.0 | 0.00 | 0.00 | 0.00 | 88 | 1007.4 |
| 20260506024101 | 25 | 149 | 3.2 | 4.8 | 0.00 | 0.00 | 0.00 | 88 | 1007.4 |
| 20260506023557 | 25 | 148 | 0.0 | 0.0 | 0.00 | 0.00 | 0.00 | 88 | 1007.1 |
| 20260506023055 | 25 | 162 | 6.4 | 8.0 | 0.00 | 0.00 | 0.00 | 87 | 1007.0 |
| 20260506022552 | 25 | 161 | 11.3 | 14.5 | 0.00 | 0.00 | 0.00 | 87 | 1007.0 |
| 20260506022050 | 25 | 154 | 4.8 | 8.0 | 0.00 | 0.00 | 0.00 | 87 | 1006.9 |
| 20260506021547 | 25 | 153 | 3.2 | 3.2 | 0.00 | 0.00 | 0.00 | 87 | 1007.0 |
| 20260506021044 | 25 | 157 | 3.2 | 4.8 | 0.00 | 0.00 | 0.00 | 86 | 1006.8 |
| 20260506020542 | 25 | 158 | 3.2 | 3.2 | 0.00 | 0.00 | 0.00 | 86 | 1006.6 |
| 20260506020039 | 25 | 141 | 4.8 | 4.8 | 0.00 | 0.00 | 0.00 | 86 | 1006.9 |
| 20260506015536 | 25 | 162 | 9.7 | 14.5 | 0.00 | 0.00 | 0.00 | 85 | 1006.8 |
| 20260506015033 | 25 | 156 | 3.2 | 4.8 | 0.00 | 0.00 | 0.00 | 85 | 1006.5 |
| 20260506014530 | 25 | 164 | 6.4 | 8.0 | 0.00 | 0.00 | 0.00 | 86 | 1006.4 |
| 20260506014026 | 25 | 137 | 4.8 | 4.8 | 0.00 | 0.00 | 0.00 | 85 | 1006.6 |
| 20260506013525 | 25 | 160 | 4.8 | 8.0 | 0.00 | 0.00 | 0.00 | 84 | 1006.6 |
| 20260506013021 | 25 | 152 | 4.8 | 8.0 | 0.00 | 0.00 | 0.00 | 84 | 1006.5 |
| 20260506012517 | 25 | 155 | 3.2 | 4.8 | 0.00 | 0.00 | 0.00 | 84 | 1006.2 |
| 20260506012014 | 25 | 164 | 3.2 | 3.2 | 0.00 | 0.00 | 0.00 | 84 | 1006.5 |
| 20260506011512 | 26 | 148 | 0.0 | 0.0 | 0.00 | 0.00 | 0.00 | 84 | 1006.5 |
| 20260506011008 | 26 | 146 | 3.2 | 3.2 | 0.00 | 0.00 | 0.00 | 83 | 1006.4 |
| 20260506010507 | 26 | 150 | 0.0 | 0.0 | 0.00 | 0.00 | 0.00 | 82 | 1006.4 |
| 20260506010002 | 26 | 171 | 4.8 | 4.8 | 0.00 | 0.00 | 0.00 | 81 | 1006.3 |
| 20260506005500 | 26 | 151 | 4.8 | 4.8 | 0.00 | 0.00 | 0.00 | 81 | 1006.3 |
| 20260506004955 | 26 | 136 | 6.4 | 8.0 | 0.00 | 0.00 | 0.00 | 81 | 1006.3 |
| 20260506004454 | 26 | 155 | 0.0 | 0.0 | 0.00 | 0.00 | 0.00 | 80 | 1006.3 |
| 20260506003949 | 27 | 163 | 3.2 | 4.8 | 0.00 | 0.00 | 0.00 | 79 | 1006.4 |
| 20260506003446 | 27 | 173 | 3.2 | 4.8 | 0.00 | 0.00 | 0.00 | 79 | 1006.3 |
| 20260506002942 | 27 | 156 | 3.2 | 3.2 | 0.00 | 0.00 | 0.00 | 79 | 1006.5 |
| 20260506002438 | 27 | 165 | 3.2 | 3.2 | 0.00 | 0.00 | 0.00 | 79 | 1006.5 |
| 20260506001934 | 27 | 167 | 0.0 | 3.2 | 0.00 | 0.00 | 0.00 | 79 | 1006.6 |
| 20260506001431 | 27 | 168 | 1.6 | 3.2 | 0.00 | 0.00 | 0.00 | 79 | 1006.4 |
| 20260506000929 | 27 | 174 | 6.4 | 8.0 | 0.00 | 0.00 | 0.00 | 78 | 1006.3 |
| 20260506000426 | 27 | 163 | 1.6 | 3.2 | 0.00 | 0.00 | 0.00 | 78 | 1006.5 |
| 20260505235923 | 27 | 167 | 3.2 | 4.8 | 0.00 | 0.00 | 0.00 | 78 | 1006.3 |
| 20260505235421 | 27 | 165 | 3.2 | 4.8 | 0.00 | 0.00 | 0.00 | 77 | 1006.4 |
| 20260505234917 | 27 | 175 | 3.2 | 4.8 | 0.00 | 0.00 | 0.00 | 78 | 1006.2 |
| 20260505234415 | 27 | 159 | 6.4 | 8.0 | 0.00 | 0.00 | 0.00 | 77 | 1006.2 |
| 20260505233911 | 27 | 159 | 4.8 | 4.8 | 0.00 | 0.00 | 0.00 | 76 | 1006.2 |
| 20260505233409 | 27 | 160 | 3.2 | 4.8 | 0.00 | 0.00 | 0.00 | 77 | 1006.1 |
| 20260505232907 | 27 | 235 | 9.7 | 14.5 | 0.00 | 0.00 | 0.00 | 76 | 1006.0 |
| 20260505232404 | 27 | 192 | 4.8 | 4.8 | 0.00 | 0.00 | 0.00 | 76 | 1005.9 |
| 20260505231901 | 27 | 205 | 9.7 | 11.3 | 0.00 | 0.00 | 0.00 | 75 | 1006.1 |
| 20260505231358 | 28 | 172 | 3.2 | 4.8 | 0.00 | 0.00 | 0.00 | 76 | 1005.9 |
| 20260505230857 | 28 | 158 | 3.2 | 4.8 | 0.00 | 0.00 | 0.00 | 76 | 1005.8 |
| 20260505230354 | 28 | 189 | 6.4 | 8.0 | 0.00 | 0.00 | 0.00 | 75 | 1005.9 |
| 20260505225850 | 28 | 155 | 8.0 | 8.0 | 0.00 | 0.00 | 0.00 | 76 | 1005.8 |
| 20260505225348 | 28 | 186 | 12.9 | 19.3 | 0.00 | 0.00 | 0.00 | 74 | 1005.8 |
| 20260505224842 | 28 | 163 | 4.8 | 8.0 | 0.00 | 0.00 | 0.00 | 76 | 1006.0 |
| 20260505224341 | 28 | 170 | 16.1 | 19.3 | 0.00 | 0.00 | 0.00 | 74 | 1005.9 |
| 20260505223837 | 28 | 107 | 17.7 | 22.5 | 0.00 | 0.00 | 0.00 | 75 | 1005.8 |
| 20260505223334 | 28 | 208 | 1.6 | 4.8 | 0.00 | 0.00 | 0.00 | 75 | 1006.1 |
| 20260505222830 | 28 | 208 | 9.7 | 11.3 | 0.00 | 0.00 | 0.00 | 74 | 1005.9 |
| 20260505222326 | 28 | 186 | 9.7 | 11.3 | 0.00 | 0.00 | 0.00 | 74 | 1005.8 |
| 20260505221824 | 28 | 162 | 6.4 | 8.0 | 0.00 | 0.00 | 0.00 | 75 | 1006.1 |
| 20260505221320 | 27 | 236 | 12.9 | 19.3 | 0.00 | 0.00 | 0.00 | 74 | 1006.2 |
| 20260505220817 | 28 | 173 | 6.4 | 8.0 | 0.00 | 0.00 | 0.00 | 74 | 1006.0 |
| 20260505220314 | 28 | 161 | 6.4 | 8.0 | 0.00 | 0.00 | 0.00 | 76 | 1006.2 |
| 20260505215813 | 28 | 225 | 11.3 | 16.1 | 0.00 | 0.00 | 0.00 | 73 | 1006.2 |
| 20260505215310 | 28 | 196 | 6.4 | 8.0 | 0.00 | 0.00 | 0.00 | 74 | 1006.0 |
| 20260505214808 | 28 | 213 | 9.7 | 11.3 | 0.00 | 0.00 | 0.00 | 74 | 1006.2 |
| 20260505214305 | 27 | 160 | 6.4 | 11.3 | 0.00 | 0.00 | 0.00 | 75 | 1006.3 |
| 20260505213802 | 27 | 172 | 8.0 | 11.3 | 0.00 | 0.00 | 0.00 | 75 | 1006.4 |
| 20260505213300 | 28 | 175 | 9.7 | 11.3 | 0.00 | 0.00 | 0.00 | 73 | 1006.3 |
| 20260505212755 | 28 | 224 | 9.7 | 14.5 | 0.00 | 0.00 | 0.00 | 74 | 1006.5 |
| 20260505212253 | 28 | 166 | 9.7 | 11.3 | 0.00 | 0.00 | 0.00 | 74 | 1006.4 |
| 20260505211749 | 28 | 207 | 12.9 | 16.1 | 0.00 | 0.00 | 0.00 | 73 | 1006.4 |
| 20260505211247 | 28 | 210 | 8.0 | 11.3 | 0.00 | 0.00 | 0.00 | 74 | 1006.6 |
| 20260505210743 | 28 | 195 | 11.3 | 16.1 | 0.00 | 0.00 | 0.00 | 73 | 1006.6 |
| 20260505210240 | 27 | 177 | 4.8 | 8.0 | 0.00 | 0.00 | 0.00 | 77 | 1006.9 |
| 20260505205737 | 27 | 143 | 4.8 | 11.3 | 0.00 | 0.00 | 0.00 | 76 | 1006.8 |
| 20260505205235 | 28 | 215 | 11.3 | 16.1 | 0.00 | 0.00 | 0.00 | 74 | 1006.7 |
| 20260505204731 | 28 | 191 | 9.7 | 16.1 | 0.00 | 0.00 | 0.00 | 74 | 1006.8 |
| 20260505204229 | 28 | 188 | 12.9 | 16.1 | 0.00 | 0.00 | 0.00 | 74 | 1007.0 |
| 20260505203726 | 27 | 211 | 9.7 | 16.1 | 0.00 | 0.00 | 0.00 | 76 | 1007.1 |
| 20260505203223 | 28 | 186 | 9.7 | 11.3 | 0.00 | 0.00 | 0.00 | 75 | 1007.1 |
| 20260505202719 | 28 | 191 | 9.7 | 11.3 | 0.00 | 0.00 | 0.00 | 74 | 1007.3 |
| 20260505202215 | 28 | 236 | 6.4 | 11.3 | 0.00 | 0.00 | 0.00 | 75 | 1007.2 |
| 20260505201712 | 27 | 160 | 11.3 | 16.1 | 0.00 | 0.00 | 0.00 | 75 | 1007.3 |
| 20260505201210 | 27 | 216 | 6.4 | 8.0 | 0.00 | 0.00 | 0.00 | 77 | 1007.3 |
| 20260505200708 | 27 | 221 | 8.0 | 14.5 | 0.00 | 0.00 | 0.00 | 75 | 1007.5 |
| 20260505200204 | 27 | 200 | 17.7 | 24.1 | 0.00 | 0.00 | 0.00 | 75 | 1007.6 |
| 20260505195700 | 27 | 158 | 4.8 | 11.3 | 0.00 | 0.00 | 0.00 | 76 | 1007.6 |
| 20260505195158 | 27 | 179 | 11.3 | 16.1 | 0.00 | 0.00 | 0.00 | 76 | 1007.7 |
| 20260505194655 | 27 | 182 | 12.9 | 16.1 | 0.00 | 0.00 | 0.00 | 76 | 1007.8 |
| 20260505194151 | 27 | 150 | 3.2 | 3.2 | 0.00 | 0.00 | 0.00 | 78 | 1007.8 |
| 20260505193647 | 27 | 205 | 12.9 | 16.1 | 0.00 | 0.00 | 0.00 | 77 | 1007.8 |
| 20260505193144 | 27 | 234 | 6.4 | 16.1 | 0.00 | 0.00 | 0.00 | 79 | 1007.9 |
| 20260505192643 | 26 | 196 | 14.5 | 16.1 | 0.00 | 0.00 | 0.00 | 78 | 1008.1 |
| 20260505192140 | 26 | 246 | 14.5 | 19.3 | 0.00 | 0.00 | 0.00 | 78 | 1008.0 |
| 20260505191639 | 26 | 202 | 6.4 | 8.0 | 0.00 | 0.00 | 0.00 | 79 | 1008.1 |
| 20260505191136 | 26 | 198 | 16.1 | 19.3 | 0.00 | 0.00 | 0.00 | 79 | 1008.1 |
| 20260505190632 | 26 | 165 | 12.9 | 19.3 | 0.00 | 0.00 | 0.00 | 78 | 1008.2 |
| 20260505190127 | 27 | 216 | 11.3 | 16.1 | 0.00 | 0.00 | 0.00 | 78 | 1008.4 |
| 20260505185624 | 26 | 172 | 6.4 | 8.0 | 0.00 | 0.00 | 0.00 | 81 | 1008.2 |
| 20260505185120 | 26 | 184 | 6.4 | 8.0 | 0.00 | 0.00 | 0.00 | 80 | 1008.2 |
| 20260505184617 | 26 | 243 | 17.7 | 24.1 | 0.00 | 0.00 | 0.00 | 79 | 1008.3 |
| 20260505184114 | 25 | 234 | 8.0 | 11.3 | 0.00 | 0.00 | 0.00 | 82 | 1008.7 |
| 20260505183610 | 25 | 227 | 19.3 | 22.5 | 0.00 | 0.00 | 0.00 | 81 | 1008.7 |
| 20260505183108 | 25 | 223 | 6.4 | 8.0 | 0.00 | 0.00 | 0.00 | 83 | 1008.8 |
| 20260505182604 | 25 | 164 | 8.0 | 11.3 | 0.00 | 0.00 | 0.00 | 83 | 1008.9 |
| 20260505182101 | 25 | 235 | 11.3 | 14.5 | 0.00 | 0.00 | 0.00 | 82 | 1008.8 |
| 20260505181558 | 25 | 169 | 6.4 | 11.3 | 0.00 | 0.00 | 0.00 | 83 | 1008.6 |
| 20260505181055 | 25 | 213 | 20.9 | 27.4 | 0.00 | 0.00 | 0.00 | 82 | 1008.5 |
| 20260505180550 | 25 | 183 | 9.7 | 16.1 | 0.00 | 0.00 | 0.00 | 82 | 1008.4 |
| 20260505180049 | 25 | 192 | 9.7 | 14.5 | 0.00 | 0.00 | 0.00 | 83 | 1008.7 |
| 20260505175549 | 25 | 232 | 22.5 | 24.1 | 0.00 | 0.00 | 0.00 | 80 | 1008.7 |
| 20260505175046 | 25 | 149 | 6.4 | 11.3 | 0.00 | 0.00 | 0.00 | 82 | 1008.9 |
| 20260505174543 | 25 | 233 | 9.7 | 14.5 | 0.00 | 0.00 | 0.00 | 84 | 1008.9 |
| 20260505174039 | 25 | 242 | 9.7 | 16.1 | 0.00 | 0.00 | 0.00 | 83 | 1008.9 |
| 20260505173536 | 25 | 225 | 9.7 | 11.3 | 0.00 | 0.00 | 0.00 | 84 | 1008.7 |
| 20260505173033 | 25 | 168 | 9.7 | 16.1 | 0.00 | 0.00 | 0.00 | 83 | 1008.9 |
| 20260505172531 | 25 | 224 | 9.7 | 14.5 | 0.00 | 0.00 | 0.00 | 84 | 1008.9 |
| 20260505172027 | 24 | 224 | 9.7 | 14.5 | 0.00 | 0.00 | 0.00 | 86 | 1008.9 |
| 20260505171522 | 23 | 229 | 11.3 | 19.3 | 0.00 | 0.00 | 0.00 | 86 | 1009.1 |
| 20260505171019 | 23 | 208 | 17.7 | 22.5 | 0.00 | 0.00 | 0.00 | 87 | 1009.2 |
| 20260505170516 | 23 | 210 | 6.4 | 11.3 | 0.00 | 0.00 | 0.00 | 87 | 1009.3 |
| 20260505170012 | 23 | 236 | 11.3 | 14.5 | 0.00 | 0.00 | 0.00 | 87 | 1009.2 |
| 20260505165507 | 23 | 285 | 12.9 | 14.5 | 0.00 | 0.00 | 0.00 | 88 | 1009.0 |
| 20260505165004 | 23 | 259 | 11.3 | 16.1 | 0.00 | 0.00 | 0.00 | 88 | 1009.2 |
| 20260505164459 | 23 | 220 | 14.5 | 22.5 | 0.00 | 0.00 | 0.00 | 88 | 1009.3 |
| 20260505163958 | 23 | 203 | 3.2 | 4.8 | 0.00 | 0.00 | 0.00 | 88 | 1009.1 |
| 20260505163451 | 23 | 229 | 12.9 | 19.3 | 0.00 | 0.00 | 0.00 | 88 | 1009.2 |
| 20260505162950 | 23 | 196 | 9.7 | 14.5 | 0.00 | 0.00 | 0.00 | 88 | 1009.2 |
| 20260505162445 | 23 | 241 | 8.0 | 11.3 | 0.00 | 0.00 | 0.00 | 88 | 1009.3 |
| 20260505161942 | 23 | 220 | 9.7 | 11.3 | 0.00 | 0.00 | 0.00 | 88 | 1009.2 |
| 20260505161438 | 23 | 148 | 4.8 | 4.8 | 0.00 | 0.00 | 0.00 | 88 | 1009.1 |
| 20260505160935 | 23 | 247 | 12.9 | 16.1 | 0.00 | 0.00 | 0.00 | 87 | 1009.2 |
| 20260505160434 | 23 | 209 | 9.7 | 14.5 | 0.00 | 0.00 | 0.00 | 88 | 1009.2 |
| 20260505152910 | 22 | 200 | 8.0 | 11.3 | 0.00 | 0.00 | 0.00 | 88 | 1008.9 |
| 20260505152407 | 22 | 237 | 17.7 | 22.5 | 0.00 | 0.00 | 0.00 | 88 | 1009.1 |
| 20260505151907 | 22 | 229 | 11.3 | 24.1 | 0.00 | 0.00 | 0.00 | 88 | 1009.0 |
| 20260505151404 | 22 | 180 | 3.2 | 3.2 | 0.00 | 0.00 | 0.00 | 88 | 1009.1 |
| 20260505150901 | 22 | 202 | 8.0 | 8.0 | 0.00 | 0.00 | 0.00 | 88 | 1009.1 |
| 20260505150358 | 22 | 181 | 8.0 | 16.1 | 0.00 | 0.00 | 0.00 | 89 | 1009.2 |
| 20260505140322 | 22 | 230 | 11.3 | 14.5 | 0.00 | 0.00 | 0.00 | 90 | 1008.5 |
| 20260505130240 | 21 | 167 | 3.2 | 4.8 | 0.00 | 0.00 | 0.00 | 90 | 1008.5 |
| 20260505124731 | 21 | 220 | 6.4 | 11.3 | 0.00 | 0.00 | 0.00 | 89 | 1008.1 |
| 20260505124227 | 21 | 188 | 4.8 | 4.8 | 0.00 | 0.00 | 0.00 | 89 | 1008.3 |
| 20260505123723 | 21 | 176 | 12.9 | 16.1 | 0.00 | 0.00 | 0.00 | 88 | 1008.2 |
| 20260505123220 | 21 | 199 | 4.8 | 4.8 | 0.00 | 0.00 | 0.00 | 88 | 1008.0 |
| 20260505122716 | 21 | 166 | 1.6 | 3.2 | 0.00 | 0.00 | 0.00 | 89 | 1007.9 |
| 20260505122214 | 21 | 237 | 16.1 | 19.3 | 0.00 | 0.00 | 0.00 | 88 | 1007.8 |
| 20260505121710 | 21 | 234 | 11.3 | 16.1 | 0.00 | 0.00 | 0.00 | 88 | 1007.8 |
| 20260505121206 | 21 | 181 | 6.4 | 11.3 | 0.00 | 0.00 | 0.00 | 88 | 1007.6 |
| 20260505120703 | 21 | 155 | 6.4 | 8.0 | 0.00 | 0.00 | 0.00 | 88 | 1007.5 |
| 20260505120159 | 21 | 263 | 6.4 | 11.3 | 0.00 | 0.00 | 0.00 | 89 | 1007.5 |
| 20260505115658 | 21 | 204 | 9.7 | 16.1 | 0.00 | 0.00 | 0.00 | 88 | 1007.5 |
| 20260505115156 | 21 | 161 | 6.4 | 8.0 | 0.00 | 0.00 | 0.00 | 89 | 1007.6 |
| 20260505114654 | 21 | 175 | 8.0 | 11.3 | 0.00 | 0.00 | 0.00 | 89 | 1007.6 |
| 20260505114149 | 21 | 219 | 8.0 | 11.3 | 0.00 | 0.00 | 0.00 | 89 | 1007.4 |
| 20260505113646 | 21 | 212 | 4.8 | 14.5 | 0.00 | 0.00 | 0.00 | 89 | 1007.6 |
| 20260505113143 | 21 | 166 | 11.3 | 16.1 | 0.00 | 0.00 | 0.00 | 89 | 1007.5 |
| 20260505112639 | 21 | 165 | 6.4 | 8.0 | 0.00 | 0.00 | 0.00 | 89 | 1007.8 |
| 20260505112137 | 21 | 163 | 3.2 | 4.8 | 0.00 | 0.00 | 0.00 | 89 | 1007.3 |
| 20260505111637 | 21 | 191 | 4.8 | 8.0 | 0.00 | 0.00 | 0.00 | 89 | 1007.6 |
| 20260505111133 | 21 | 254 | 9.7 | 11.3 | 0.00 | 0.00 | 0.00 | 88 | 1007.7 |
| 20260505110629 | 21 | 194 | 4.8 | 8.0 | 0.00 | 0.00 | 0.00 | 88 | 1007.9 |
| 20260505110127 | 21 | 194 | 6.4 | 8.0 | 0.00 | 0.00 | 0.00 | 89 | 1007.9 |
| 20260505102102 | 21 | 219 | 9.7 | 11.3 | 0.00 | 0.00 | 0.00 | 88 | 1007.6 |
| 20260505101601 | 21 | 182 | 9.7 | 14.5 | 0.00 | 0.00 | 0.00 | 88 | 1007.5 |
| 20260505101056 | 21 | 239 | 12.9 | 16.1 | 0.00 | 0.00 | 0.00 | 88 | 1007.8 |
| 20260505100553 | 21 | 177 | 14.5 | 19.3 | 0.00 | 0.00 | 0.00 | 88 | 1007.7 |
| 20260505100050 | 21 | 184 | 6.4 | 14.5 | 0.00 | 0.00 | 0.00 | 88 | 1007.7 |
| 20260505095546 | 21 | 159 | 4.8 | 8.0 | 0.00 | 0.00 | 0.00 | 88 | 1008.0 |
| 20260505095043 | 21 | 161 | 3.2 | 4.8 | 0.00 | 0.00 | 0.00 | 88 | 1007.6 |
| 20260505094539 | 21 | 168 | 9.7 | 14.5 | 0.00 | 0.00 | 0.00 | 88 | 1007.8 |
| 20260505094036 | 21 | 207 | 3.2 | 4.8 | 0.00 | 0.00 | 0.00 | 88 | 1007.7 |
| 20260505093532 | 21 | 197 | 9.7 | 11.3 | 0.00 | 0.00 | 0.00 | 88 | 1007.6 |
| 20260505093030 | 21 | 133 | 6.4 | 8.0 | 0.00 | 0.00 | 0.00 | 88 | 1007.8 |
| 20260505092527 | 21 | 168 | 16.1 | 30.6 | 0.00 | 0.00 | 0.00 | 88 | 1007.9 |
| 20260505092025 | 21 | 199 | 12.9 | 19.3 | 0.00 | 0.00 | 0.00 | 87 | 1008.0 |
| 20260505091522 | 21 | 158 | 4.8 | 11.3 | 0.00 | 0.00 | 0.00 | 87 | 1008.1 |
| 20260505091020 | 21 | 236 | 9.7 | 14.5 | 0.00 | 0.00 | 0.00 | 87 | 1008.1 |
| 20260505090518 | 21 | 210 | 6.4 | 11.3 | 0.00 | 0.00 | 0.00 | 87 | 1008.0 |
| 20260505090015 | 21 | 178 | 4.8 | 8.0 | 0.00 | 0.00 | 0.00 | 88 | 1008.0 |
| 20260505085513 | 21 | 193 | 8.0 | 11.3 | 0.00 | 0.00 | 0.00 | 88 | 1007.8 |
| 20260505085011 | 21 | 189 | 6.4 | 8.0 | 0.00 | 0.00 | 0.00 | 88 | 1008.0 |
| 20260505084509 | 21 | 248 | 19.3 | 24.1 | 0.00 | 0.00 | 0.00 | 88 | 1008.0 |
| 20260505084007 | 21 | 241 | 6.4 | 8.0 | 0.00 | 0.00 | 0.00 | 88 | 1008.2 |
| 20260505083504 | 21 | 183 | 4.8 | 8.0 | 0.00 | 0.00 | 0.00 | 88 | 1008.1 |
| 20260505083000 | 21 | 204 | 6.4 | 11.3 | 0.00 | 0.00 | 0.00 | 88 | 1008.4 |
| 20260505082455 | 21 | 196 | 4.8 | 8.0 | 0.00 | 0.00 | 0.00 | 88 | 1008.3 |
| 20260505081953 | 21 | 221 | 11.3 | 16.1 | 0.00 | 0.00 | 0.00 | 87 | 1008.2 |
| 20260505081449 | 21 | 144 | 8.0 | 11.3 | 0.00 | 0.00 | 0.00 | 88 | 1008.5 |
| 20260505080946 | 21 | 188 | 12.9 | 16.1 | 0.00 | 0.00 | 0.00 | 87 | 1008.3 |
| 20260505080442 | 21 | 171 | 9.7 | 14.5 | 0.00 | 0.00 | 0.00 | 88 | 1008.4 |
| 20260505075938 | 21 | 159 | 3.2 | 3.2 | 0.00 | 0.00 | 0.00 | 88 | 1008.4 |
| 20260505075435 | 21 | 222 | 6.4 | 8.0 | 0.00 | 0.00 | 0.00 | 88 | 1008.8 |
| 20260505074932 | 21 | 212 | 11.3 | 16.1 | 0.00 | 0.00 | 0.00 | 88 | 1009.0 |
| 20260505074430 | 21 | 210 | 11.3 | 19.3 | 0.00 | 0.00 | 0.00 | 88 | 1008.6 |
| 20260505073926 | 21 | 161 | 3.2 | 3.2 | 0.00 | 0.00 | 0.00 | 87 | 1008.8 |
| 20260505073424 | 21 | 193 | 9.7 | 11.3 | 0.00 | 0.00 | 0.00 | 87 | 1008.9 |
| 20260505072921 | 21 | 175 | 6.4 | 11.3 | 0.00 | 0.00 | 0.00 | 87 | 1008.9 |
| 20260505072417 | 21 | 182 | 11.3 | 16.1 | 0.00 | 0.00 | 0.00 | 87 | 1009.0 |
| 20260505071913 | 21 | 180 | 3.2 | 4.8 | 0.00 | 0.00 | 0.00 | 87 | 1009.0 |
| 20260505071410 | 21 | 169 | 11.3 | 16.1 | 0.00 | 0.00 | 0.00 | 87 | 1009.3 |
| 20260505070908 | 21 | 161 | 4.8 | 8.0 | 0.00 | 0.00 | 0.00 | 87 | 1009.1 |
| 20260505070404 | 21 | 179 | 6.4 | 11.3 | 0.00 | 0.00 | 0.00 | 87 | 1009.2 |
| 20260505065900 | 21 | 170 | 9.7 | 16.1 | 0.00 | 0.00 | 0.00 | 87 | 1009.2 |
| 20260505065356 | 21 | 166 | 4.8 | 8.0 | 0.00 | 0.00 | 0.00 | 87 | 1009.2 |
| 20260505064853 | 21 | 180 | 11.3 | 16.1 | 0.00 | 0.00 | 0.00 | 87 | 1009.3 |
| 20260505064350 | 21 | 219 | 11.3 | 22.5 | 0.00 | 0.00 | 0.00 | 87 | 1009.3 |
| 20260505063849 | 21 | 149 | 3.2 | 4.8 | 0.00 | 0.00 | 0.00 | 87 | 1009.5 |
| 20260505063344 | 21 | 122 | 3.2 | 4.8 | 0.00 | 0.00 | 0.00 | 87 | 1009.7 |
| 20260505062841 | 21 | 177 | 4.8 | 8.0 | 0.00 | 0.00 | 0.00 | 87 | 1009.5 |
| 20260505062339 | 21 | 191 | 9.7 | 11.3 | 0.00 | 0.00 | 0.00 | 86 | 1009.7 |
| 20260505061835 | 21 | 192 | 12.9 | 16.1 | 0.00 | 0.00 | 0.00 | 86 | 1009.7 |
| 20260505061333 | 21 | 173 | 9.7 | 11.3 | 0.00 | 0.00 | 0.00 | 86 | 1009.6 |
| 20260505060831 | 21 | 159 | 8.0 | 11.3 | 0.00 | 0.00 | 0.00 | 86 | 1009.5 |
| 20260505060327 | 21 | 186 | 6.4 | 8.0 | 0.00 | 0.00 | 0.00 | 86 | 1009.6 |